国际通讯卫星 4-F7星 (INTELSAT 4-F7)

导读 | 星芒AI

INTELSAT 4-F7 是一颗由国际通信卫星组织(INTELSAT)运营的通信卫星,于1974年发射,旨在提供跨大西洋的固定卫星通信服务。该卫星搭载C波段转发器,支持电视广播和电话通信。作为INTELSAT 4系列的一部分,F7卫星在地球同步轨道上运行,显著提升了当时国际通信的容量和可靠性,为全球通信基础设施的发展做出了重要贡献。

基本信息
目录编号:
6796
目录名称:
INTELSAT 4-F7
国际标识:
1973-058A
轨道中心:
EARTH
卫星名称:
国际通讯卫星 4-F7星
卫星全名:
国际通讯卫星 4-F7星 (INTELSAT 4-F7)
卫星状态:
在轨 (已飞行19060 天)
发射日期:
1973-08-23 UTC
国别 :
(ITSO)
星等 :
--
轨道信息
数据来源 国际轨道数据 AOE轨道数据
星历时间 2025-10-28T20:59:23+0800
17小时前
查看轨道信息
2025-10-26T00:00:00+0800
3天前
查看轨道信息
半长轴 42483.171km 42482.828km
偏心率 0.0005271 0.0005315
轨道倾角 7.776° 7.783°
近地点辐角 230.492° 229.470°
升交点赤经 298.705° 298.728°
平近点角 186.249° 241.209°
近地点 36082.643km 36082.113km
远地点 36127.429km 36127.273km
周期 1452.396分钟 1452.379分钟
每日圈数 0.991465 0.991477
详细信息
卫星平台:
HS-353
平衡模式:
自旋稳定
覆盖范围:
全球
运营商:
国际卫星通信公司
运营商所在国:
美国
制造商(研发单位):
休斯公司
制造商所在国:
美国
使用方式:
暂无
卫星简介
从1965年4月至1984年3月,国际通信卫星组织发射了5代、6种不同性能的卫星共计35颗,除6颗卫星因运载火箭和远地点发动机故障而发射失败外,其余29颗卫星均被送到了预定的静止轨道位置。1984年8月前后,国际通信卫星组织利用部署在大西洋、太平洋、印度洋上空的15颗国际通信卫星,为遍布世界各地170多个国家或地区提供电话、电传、电报、电视和数据传输等电信业务;该卫星已退役。
2D轨道图
3D轨道图
轨道高度分析图
轨道倾角分析图
轨道综合分析图
查看轨道综合分析图